Date String (YYYY-MM-DD hh:mm:ss) UTC,Instrument flags,Ambient pressure (hPa),Sample flow (lpm),Bypass flow (lpm),Sample temperature (°C),Ambient temperature (°C),ASC tube jacket temperature (°C),LED temperature (°C),Box temperature (°C),Sample RH (%),Span deviation,Mass concentration (μg/m³),Mass concentration (μg/m³),Mass concentration (μg/m³)
DateTimeUTC,F1_M11,P_M11,Q1_M11,Q2_M11,T1_M11,T2_M11,T3_M11,T4_M11,T5_M11,U1_M11,ZSPAN_M11,X0_M11,X2_M11,X1_M11
2022-03-13 23:00:00,,0816.4,5.00,0.00,28.5,27.7,00.0,37.5,30.2,06.4,0000.0,0001.33,0000.85,0000.64
2022-03-13 23:01:00,,0816.4,5.00,0.00,28.5,27.7,00.0,37.5,30.2,06.3,0000.0,0001.38,0000.86,0000.64
2022-03-13 23:02:00,,0816.4,4.99,0.00,28.5,27.7,00.0,37.5,30.2,06.6,0000.0,0001.43,0000.87,0000.64
2022-03-13 23:03:00,,0816.4,5.00,0.00,28.5,27.7,00.0,37.5,30.2,06.6,0000.0,0001.56,0000.92,0000.64
2022-03-13 23:04:00,,0816.5,4.99,0.00,28.5,27.7,00.0,37.5,30.2,06.7,0000.0,0001.62,0000.94,0000.65
2022-03-13 23:05:00,,0816.4,5.01,0.00,28.5,27.7,00.0,37.5,30.2,06.8,0000.0,0001.64,0000.97,0000.66
2022-03-13 23:06:00,,0816.5,4.99,0.00,28.5,27.8,00.0,37.5,30.2,06.7,0000.0,0001.71,0001.01,0000.67
2022-03-13 23:07:00,,0816.5,4.98,0.00,28.5,27.8,00.0,37.5,30.2,06.8,0000.0,0001.76,0001.04,0000.68
2022-03-13 23:08:00,,0816.5,5.01,0.00,28.5,27.8,00.0,37.5,30.3,06.9,0000.0,0001.73,0001.03,0000.69
2022-03-13 23:09:00,,0816.4,5.00,0.00,28.6,27.8,00.0,37.5,30.2,06.6,0000.0,0001.68,0001.02,0000.70
2022-03-13 23:10:00,,0816.5,4.99,0.00,28.6,27.8,00.0,37.5,30.3,06.7,0000.0,0001.66,0001.01,0000.69
2022-03-13 23:11:00,,0816.6,5.00,0.00,28.6,27.8,00.0,37.5,30.2,06.7,0000.0,0001.58,0000.99,0000.69
2022-03-13 23:12:00,,0816.6,5.02,0.00,28.6,27.8,00.0,37.5,30.3,06.4,0000.0,0001.46,0000.96,0000.70
2022-03-13 23:13:00,,0816.6,4.98,0.00,28.6,27.8,00.0,37.5,30.3,06.6,0000.0,0001.39,0000.95,0000.71
2022-03-13 23:14:00,,0816.6,5.01,0.00,28.6,27.8,00.0,37.5,30.3,06.6,0000.0,0001.22,0000.90,0000.72
2022-03-13 23:15:00,,0816.7,4.99,0.00,28.6,27.8,00.0,37.5,30.3,06.8,0000.0,0001.80,0000.89,0000.72
2022-03-13 23:16:00,,0816.7,4.99,0.00,28.6,27.8,00.0,37.5,30.3,06.8,0000.0,0002.35,0000.85,0000.71
2022-03-13 23:17:00,,0816.7,5.02,0.00,28.6,27.8,00.0,37.5,30.3,07.0,0000.0,0002.35,0000.84,0000.71
2022-03-13 23:18:00,,0816.6,5.00,0.00,28.6,27.8,00.0,37.5,30.3,06.7,0000.0,0002.36,0000.84,0000.71
2022-03-13 23:19:00,,0816.6,5.00,0.00,28.6,27.8,00.0,37.6,30.3,06.8,0000.0,0002.38,0000.85,0000.70
2022-03-13 23:20:00,,0816.7,5.02,0.00,28.6,27.8,00.0,37.6,30.3,07.0,0000.0,0002.37,0000.85,0000.70
2022-03-13 23:21:00,,0816.7,4.98,0.00,28.6,27.8,00.0,37.6,30.3,06.9,0000.0,0002.36,0000.84,0000.70
2022-03-13 23:22:00,,0816.8,5.01,0.00,28.6,27.7,00.0,37.6,30.2,06.9,0000.0,0002.37,0000.84,0000.70
2022-03-13 23:23:00,,0816.8,4.99,0.00,28.6,27.7,00.0,37.6,30.2,06.7,0000.0,0002.43,0000.86,0000.71
2022-03-13 23:24:00,,0816.7,5.01,0.00,28.6,27.7,00.0,37.6,30.2,06.8,0000.0,0002.41,0000.85,0000.70
2022-03-13 23:25:00,,0816.7,5.00,0.00,28.5,27.7,00.0,37.6,30.2,06.8,0000.0,0002.47,0000.89,0000.71
2022-03-13 23:26:00,,0816.7,5.00,0.00,28.5,27.7,00.0,37.5,30.3,06.9,0000.0,0001.86,0000.93,0000.71
2022-03-13 23:27:00,,0816.7,4.99,0.00,28.5,27.7,00.0,37.5,30.2,06.8,0000.0,0001.37,0000.95,0000.72
2022-03-13 23:28:00,,0816.7,5.00,0.00,28.5,27.7,00.0,37.5,30.2,06.9,0000.0,0001.58,0000.99,0000.73
2022-03-13 23:29:00,,0816.7,5.01,0.00,28.5,27.6,00.0,37.5,30.2,06.8,0000.0,0001.57,0000.99,0000.74
2022-03-13 23:30:00,,0816.6,4.99,0.00,28.5,27.6,00.0,37.5,30.1,06.9,0000.0,0001.55,0000.97,0000.74
2022-03-13 23:31:00,,0816.8,5.01,0.00,28.5,27.6,00.0,37.5,30.1,06.8,0000.0,0001.70,0001.00,0000.75
2022-03-13 23:32:00,,0816.8,5.00,0.00,28.5,27.6,00.0,37.5,30.1,07.0,0000.0,0001.75,0001.02,0000.75
2022-03-13 23:33:00,,0816.8,5.00,0.00,28.5,27.6,00.0,37.5,30.1,07.1,0000.0,0001.81,0001.07,0000.76
2022-03-13 23:34:00,,0816.8,4.99,0.00,28.5,27.6,00.0,37.5,30.2,07.0,0000.0,0001.89,0001.11,0000.77
2022-03-13 23:35:00,,0817.3,5.02,0.00,28.4,27.5,00.0,37.5,30.1,07.1,0000.0,0001.89,0001.12,0000.77
2022-03-13 23:36:00,,0817.3,4.99,0.00,28.4,27.5,00.0,37.5,30.1,07.2,0000.0,0001.96,0001.14,0000.77
2022-03-13 23:37:00,,0816.9,5.00,0.00,28.4,27.5,00.0,37.5,30.0,07.0,0000.0,0002.07,0001.15,0000.78
2022-03-13 23:38:00,,0816.9,5.01,0.00,28.4,27.5,00.0,37.5,30.1,07.0,0000.0,0002.06,0001.16,0000.78
2022-03-13 23:39:00,,0816.9,5.00,0.00,28.4,27.5,00.0,37.5,30.1,07.1,0000.0,0001.84,0001.12,0000.78
2022-03-13 23:40:00,,0817.0,4.99,0.00,28.4,27.5,00.0,37.5,30.1,07.0,0000.0,0001.79,0001.10,0000.78
2022-03-13 23:41:00,,0817.0,5.01,0.00,28.4,27.5,00.0,37.5,30.1,07.0,0000.0,0001.78,0001.11,0000.78
2022-03-13 23:42:00,,0817.0,4.99,0.00,28.4,27.6,00.0,37.5,30.1,07.2,0000.0,0001.70,0001.12,0000.77
2022-03-13 23:43:00,,0817.0,5.00,0.00,28.4,27.5,00.0,37.5,30.1,07.0,0000.0,0001.68,0001.11,0000.78
2022-03-13 23:44:00,,0817.0,5.00,0.00,28.4,27.6,00.0,37.5,30.1,07.0,0000.0,0001.72,0001.10,0000.78
2022-03-13 23:45:00,,0817.0,5.00,0.00,28.4,27.6,00.0,37.5,30.1,07.1,0000.0,0001.77,0001.07,0000.77
2022-03-13 23:46:00,,0817.0,5.01,0.00,28.4,27.6,00.0,37.5,30.1,07.1,0000.0,0001.81,0001.07,0000.77
2022-03-13 23:47:00,,0816.9,4.98,0.00,28.5,27.6,00.0,37.5,30.1,07.2,0000.0,0001.73,0001.04,0000.77
2022-03-13 23:48:00,,0817.0,5.01,0.00,28.4,27.6,00.0,37.5,30.1,07.2,0000.0,0001.69,0001.02,0000.76
2022-03-13 23:49:00,,0817.0,5.00,0.00,28.4,27.6,00.0,37.5,30.1,07.2,0000.0,0001.76,0001.02,0000.76
2022-03-13 23:50:00,,0817.0,5.00,0.00,28.4,27.6,00.0,37.5,30.0,07.2,0000.0,0001.90,0001.04,0000.76
2022-03-13 23:51:00,,0817.0,5.00,0.00,28.4,27.6,00.0,37.5,30.1,07.1,0000.0,0002.25,0001.07,0000.76
2022-03-13 23:52:00,,0817.0,5.02,0.00,28.4,27.6,00.0,37.5,30.1,07.0,0000.0,0002.27,0001.06,0000.75
2022-03-13 23:53:00,,0817.1,4.99,0.00,28.4,27.6,00.0,37.5,30.1,07.1,0000.0,0002.26,0001.05,0000.75
2022-03-13 23:54:00,,0817.1,4.99,0.00,28.4,27.6,00.0,37.5,30.1,07.2,0000.0,0002.23,0001.04,0000.75
2022-03-13 23:55:00,,0817.1,5.01,0.00,28.5,27.6,00.0,37.5,30.1,07.1,0000.0,0002.15,0001.02,0000.75
2022-03-13 23:56:00,,0817.1,4.99,0.00,28.5,27.6,00.0,37.5,30.1,07.1,0000.0,0002.01,0001.00,0000.74
2022-03-13 23:57:00,,0817.0,4.99,0.00,28.4,27.6,00.0,37.5,30.1,07.0,0000.0,0001.98,0000.99,0000.74
2022-03-13 23:58:00,,0817.1,5.01,0.00,28.4,27.6,00.0,37.5,30.1,07.1,0000.0,0002.13,0000.98,0000.73
2022-03-13 23:59:00,,0817.1,4.99,0.00,28.4,27.6,00.0,37.5,30.1,07.3,0000.0,0002.12,0000.97,0000.73
